Tracking 20093 objects as of 16-Dec-2019
HD Live streaming from Space Station
objects crossing your sky now

FENGYUN 1C DEB

Track FENGYUN 1C DEB now!
10-day predictions


NORAD ID: 33724
Int'l Code: 1999-025DHM
Perigee: 827.1 km
Apogee: 868.4 km
Inclination: 98.8 °
Period: 101.7 minutes
Semi major axis: 7218 km
RCS: 0.0006 m2 (small)
Launch date: May 10, 1999
Source: People's Republic of China (PRC)
Launch site: Taiyaun Space Center, China (TSC)

Note: This is SATELLITE DEBRIS
aabbcc
Your satellite tracking list
Your tracking list is empty




NASA's NSSDC Master Catalog

Two Line Element Set (TLE):
1 33724U 99025DHM 19349.86780615  .00000142  00000-0  94553-4 0  9998
2 33724  98.7860  20.8585 0028635 341.9436 191.8369 14.15506082637455
Source of the keplerian elements: AFSPC